Find Starlink 32925

NORAD ID: 63091 Int'l Des: 2025-037 Owner: SPXS Country: US Constellation: starlink operational
LEOCIRCULAR

Current View

Loading 3D Globe...

About Starlink 32925

Starlink 32925 (NORAD 63091) is a starlink constellation satellite (v2 mini) launched Feb 23, 2025 by SPXS of US. It operates in LEO, CIRCULAR orbit with a mass of 730.00 kg.

About Starlink 32925

Description loading...

Upcoming Passes

Passes for default location (London). Set your location on the main map for personalized predictions.

Altitude History

Loading altitude history...

Two-Line Element Set

1 63091U 25037Q 26176.15647062 .00002647 00000-0 22947-3 0 9995
2 63091 70.0015 83.3276 0002769 270.0761 90.0081 14.98336932 74647
Epoch: Jun 25, 2026 • Age: 10 hours

Current Status

Altitude 577.8 km
Velocity 7.57 km/s
Sub-Earth Point 37.25°N, 18.62°W
Launch Date Feb 23, 2025
Age 1.3 years
Type internet

Technical Details

Classification Payload
Mass 730.00 kg
Dry Mass 700.00 kg
Total Mass 730.00 kg
Length 0.30 m
Diameter 4.10 m
Span 29.00 m
Shape Box + pan
Manufacturer SPXS
Bus Type Starlink V2M
Phase Status In Orbit
Owner/State SPXS/US

Most Searched